Regional Weather Roundup
Issued by NWS Jackson, KY

Home | Current Version | Previous Version | Text Only | Print | Product List | Glossary On
Versions: 1 2 3 4 5 6 7 8 9 10 11 12 13 14 15 16 17 18 19 20 21 22 23 24 25 26 27 28 29 30 31 32 33 34 35 36 37 38 39 40 41 42 43 44 45 46 47 48 49 50
000
ASUS43 KJKL 280919
RWRJKL

EAST KENTUCKY HOURLY WEATHER ROUNDUP
NATIONAL WEATHER SERVICE JACKSON KY
400 AM EST WED JAN 28 2015

NOTE: "FAIR" INDICATES FEW OR NO CLOUDS BELOW 12,000 FEET WITH
NO SIGNIFICANT WEATHER AND/OR OBSTRUCTIONS TO VISIBILITY.

* THESE REPORTS ARE NOT UNDER NWS QUALITY CONTROL AND MAY NOT
  REPORT WEATHER SUCH AS PRECIPITATION AND FOG.

KYZ079-080-083-085-087-088-110-112-115-119-120-281000
...EASTERN KENTUCKY...

CITY           SKY/WX    TMP DP  RH WIND       PRES   REMARKS
JACKSON        CLEAR     16  10  77 CALM      30.23R
LONDON         CLEAR     21  12  68 CALM      30.24R
SOMERSET*      CLEAR     21  14  73 N5        30.28R WCI  15
MONTICELLO*    CLEAR     18  15  88 CALM      30.29R
MIDDLESBORO*   CLEAR     20  17  87 CALM      30.24R
HARLAN APT*    SUNNY     19  14  79 CALM      30.20S
HAZARD APT*    SUNNY     19  12  73 CALM      30.24R
BLACK MTN*       N/A      9   7  92 VRB7        N/A  WCI  -3
PIKEVILLE APT* MOCLDY    18  12  79 CALM      30.21S
BIG SANDY*     MOSUNNY   18  14  85 CALM      30.24S
MOREHEAD APT*  SUNNY     16  12  86 CALM      30.29S
ASHLAND*       CLEAR    N/A N/A N/A CALM      30.27S
$$

KYZ035-036-041-042-044-050-067-078-099-281000
...CENTRAL KENTUCKY...

CITY           SKY/WX    TMP DP  RH WIND       PRES   REMARKS
MT STERLING*   CLEAR     18  12  79 E3        30.28S
FLEMING/MASON* CLEAR     15  12  88 CALM      30.29S
DANVILLE*      CLEAR     18  14  86 CALM      30.27F
RICHMOND*      CLEAR     18  12  79 NE3       30.26S
LEXINGTON      CLEAR     16  11  80 E3        30.27S
FRANKFORT      CLEAR     14  10  84 CALM      30.27S
$$

KYZ091>093-OHZ055-061-077-WVZ005-015-034-035-042-281000
...SOUTHERN OHIO/WEST VIRGINIA...

CITY           SKY/WX    TMP DP  RH WIND       PRES   REMARKS
COVINGTON      CLEAR     15  11  83 CALM      30.28R FOG
COLUMBUS       PTCLDY     8   4  83 CALM      30.26S FOG
DAYTON         CLEAR     11   6  81 NW3       30.27R
WILMINGTON     PTCLDY     8   4  83 CALM      30.26R FOG
HUNTINGTON     CLEAR     17  12  80 N3        30.26S
CHARLESTON     FLURRIES  21  14  74 VRB5      30.25R WCI  15
PINEVILLE*     FLURRIES  23  18  81 MISG      30.22R
BECKLEY        FLURRIES  16  10  77 NW6       30.11R WCI   7
BLUEFIELD      CLOUDY    18  11  74 NW8       30.08R WCI   8
$$

VAZ002-007-008-TNZ017-027-036-066-071-281000
...SOUTHWEST VIRGINIA/EAST TENNESSEE...

CITY           SKY/WX    TMP DP  RH WIND       PRES   REMARKS
WISE*          PTCLDY    18  12  79 NW3       30.12R
JONESVILLE*    SUNNY     19  16  86 CALM      30.22S
ABINGDON*      PTCLDY    21  14  75 NW3       30.15R
BRISTOL        PTCLDY    21  10  62 CALM      30.19R
KNOXVILLE      CLEAR     28  20  71 NE3       30.21R
OAK RIDGE      CLEAR     30  20  66 VRB3      30.23R
CROSSVILLE     CLOUDY    28  20  71 N8        30.18R WCI  20
NASHVILLE      CLOUDY    33  28  81 NE7       30.26R WCI  27
$$

...KEY TO REMARKS...
VSB - VISIBILITY IN MILES
WCI - WIND CHILL INDEX
HX  - HEAT INDEX

$$


USA.gov is the U.S. government's official web portal to all federal, state and local government web resources and services.